Home   Weather   Fairfax   Past weeks

Flag for USA Past Weather in Fairfax, Virginia, USA — Yesterday and Last 2 Weeks

Now
68 °F

Overcast.


Feels Like: 68 °F
Forecast: 59 / 73 °F
Wind: 7 mph from South

Location: Washington-Dulles International Airport

Current Time: Sep 26, 2016 at 8:14:24 PM

Latest Report: Sep 26, 2016 at 6:52 PM


Visibility: 10 mi

Pressure: 30.02 "Hg

Humidity: 73%

Dew Point: 59 °F

Location of FairfaxLocation

Past Weather in Fairfax — Graph

°F

Fairfax Temperature Yesterday

Maximum temperature yesterday: 71 °F (at 2:52 PM)
Minimum temperature yesterday: 54 °F (at 6:52 AM)
Average temperature yesterday: 62 °F

High & Low Weather Summary for the Past Weeks

 TemperatureHumidityPressure
High92 °F (Sep 14, 2:52 PM)97% (Sep 14, 5:52 AM)30.29 "Hg (Sep 14, 5:52 AM)
Low54 °F (Sep 25, 6:52 AM)21% (Sep 14, 3:52 PM)29.96 "Hg (Sep 23, 5:52 PM)
Average72 °F68%30.12 "Hg
* Reported Sep 11 6:52 PM — Sep 26 6:52 PM, Fairfax, Weather by CustomWeather, © 2016

Note: Actual official high and low records may vary slightly from our data, if they occured in-between our weather recording intervals... More about our weather records

Advertising

Fairfax Weather History for the Previous 24 Hours

Scroll right to see more
 ConditionsComfort  
Time TempWeatherWind HumidityBarometerVisibility
6:52 PM
Mon, Sep 26
68 °FOvercast.7 mph73%30.02 "Hg10 mi
5:52 PM68 °FOvercast.8 mph73%30.00 "Hg10 mi
4:52 PM68 °FOvercast.10 mph70%30.00 "Hg10 mi
3:52 PM68 °FOvercast.13 mph68%30.02 "Hg10 mi
2:52 PM66 °FOvercast.10 mph75%30.05 "Hg10 mi
1:52 PM67 °FOvercast.12 mph71%30.07 "Hg10 mi
12:52 PM67 °FMore clouds than sun.12 mph71%30.10 "Hg10 mi
11:52 AM66 °FOvercast.16 mph73%30.11 "Hg10 mi
10:52 AM66 °FOvercast.10 mph70%30.12 "Hg10 mi
9:52 AM66 °FOvercast.8 mph70%30.12 "Hg10 mi
8:52 AM65 °FOvercast.8 mph70%30.12 "Hg10 mi
7:52 AM64 °FOvercast.6 mph73%30.12 "Hg10 mi
6:52 AM64 °FOvercast.5 mph73%30.12 "Hg10 mi
5:52 AM63 °FOvercast.No wind73%30.12 "Hg10 mi
4:52 AM62 °FOvercast.No wind75%30.13 "Hg10 mi
3:52 AM61 °FOvercast.No wind81%30.14 "Hg10 mi
2:52 AM60 °FOvercast.No wind80%30.15 "Hg10 mi
1:52 AM58 °FOvercast.No wind84%30.16 "Hg10 mi
12:52 AM57 °FPartly cloudy.3 mph87%30.16 "Hg10 mi
11:52 PM
Sun, Sep 25
58 °FPassing clouds.3 mph84%30.16 "Hg10 mi
10:52 PM62 °FPassing clouds.3 mph75%30.17 "Hg10 mi
9:52 PM60 °FPartly cloudy.No wind75%30.17 "Hg10 mi
8:52 PM60 °FPassing clouds.No wind72%30.16 "Hg10 mi
Weather by CustomWeather, © 2016

See weather overviewHow to use our weather pages